sat.trackr.live / text

‹ back to catalog

STARLINK-34371

NORAD 64756 · 2025-147B

PAYLOAD ACTIVE UNKNOWN

§ Identity

Operator
Country
US
Launch date
2025-07-08
Launch site
AFETR
Launch vehicle
Mass (kg)
RCS (m²)

Purposes: comms

External: N2YO · Heavens-Above · Gunter

§ Orbital elements

Epoch: 2026-09-20T14:30:57.279168Z

Period
94.01 min
Inclination
53.1579°
Eccentricity
0.0001481
Mean motion
15.31717554 rev/d
Perigee alt
469.7 km
Apogee alt
471.7 km
Semi-major
6,848.8 km
B*
5.1339e-4
RAAN
56.0081°
Arg perigee
81.4321°
Mean anomaly
278.6848°
Rev number
6,856

§ Raw data

STARLINK-343711 64756U 25147B   26263.60482962  .00015608  00000+0  51339-3 0  99962 64756  53.1579  56.0081 0001481  81.4321 278.6848 15.31717554 68560

JSON: /api/v1/satellites/64756 · /tle

For live sub-satellite position, see the globe view (requires WebGL).

§ Visibility from observer

Set your observer location to see the next 7 days of passes ≥ 10°. The values pass through the URL so the page stays shareable.

No JS? Fill the form by hand. The geolocation button needs JavaScript.